Regional Weather Roundup
Issued by NWS Charleston, SC

Current Version | Previous Version | Graphics & Text | Print | Product List | Glossary On
Versions: 1 2 3 4 5 6 7 8 9 10 11 12 13 14 15 16 17 18 19 20 21 22 23 24 25 26 27 28 29 30 31 32 33 34 35 36 37 38 39 40 41 42 43 44 45 46 47 48 49 50
000
ASUS42 KCHS 031127
RWRCHS
REGIONAL WEATHER ROUNDUP
NATIONAL WEATHER SERVICE CHARLESTON SC
700 AM EDT SUN MAY 03 2015

NOTE: "FAIR" INDICATES FEW OR NO CLOUDS BELOW 12,000 FEET WITH NO
SIGNIFICANT WEATHER AND/OR OBSTRUCTIONS TO VISIBILITY.

NOT ALL STATIONS ARE QUALITY CONTROLLED BY THE NATIONAL
WEATHER SERVICE. USE DATA WITH CAUTION...ESPECIALLY
DEWPOINT OBSERVATIONS.

SCZ027-030-031-034>040-042>050-031200-
...SOUTHEAST SOUTH CAROLINA...

CITY           SKY/WX    TMP DP  RH WIND       PRES   REMARKS
N CHARLESTON   CLEAR     55  54  96 CALM      30.14R
WATERFRONT PRK   N/A     61 N/A N/A CALM        N/A
MOUNT PLEASANT FAIR      54  54 100 MISG      30.15R FOG
PINOPOLIS      NOT AVBL
MONCKS CORNER  FAIR      52  50  93 CALM      30.15R FOG
SUMMERVILLE    FAIR      50  50 100 CALM      30.15R
BEAUFORT MCAS  CLEAR     54  52  93 CALM      30.14R
BEAUFORT ARPT  FAIR      55  55 100 CALM      30.14R
HILTON HEAD IS CLEAR     55  55 100 CALM      30.15R
WALTERBORO     SUNNY     52  50  93 CALM      30.15R
ALLENDALE      FAIR      52  52 100 CALM      30.14R FOG

...SOUTHERN MIDLANDS AND PEE DEE...

CITY           SKY/WX    TMP DP  RH WIND       PRES   REMARKS
GEORGETOWN     NOT AVBL
KINGSTREE      NOT AVBL
ORANGEBURG     CLEAR     50  48  93 CALM      30.15R FOG
BARNWELL       FAIR      52  50  93 CALM      30.16R
AIKEN          FAIR      48  45  87 CALM      30.18R
MANNING        LGT SNOW  46  36  66 CALM      30.15R
COLUMBIA       FAIR      51  46  83 CALM      30.14R
SUMTER         CLEAR     50  46  85 NE1       30.13R
FLORENCE       CLEAR     51  49  92 E5        30.15R
MYRTLE BEACH   FOG       55  52  88 CALM      30.17R VSB 1
N MYRTLE BEACH FOG       56  56 100 CALM      30.15R VSB 3/4

$$

GAZ063-065-086>088-099>101-113>116-118-119-134>141-150-031200-
...SOUTHEAST GEORGIA...

CITY           SKY/WX    TMP DP  RH WIND       PRES   REMARKS
SAVANNAH ARPT  CLEAR     55  52  89 CALM      30.14R
HUNTER AAF     CLEAR     55  55 100 CALM      30.12R
FORT STEWART   CLEAR     53  51  94 CALM      30.12R
STATESBORO       N/A     52  52 100 CALM      30.15R
SYLVANIA       SUNNY     52  52 100 CALM      30.16R
CLAXTON        FAIR      50  50 100 CALM      30.15R

...CSRA...CENTRAL AND FAR SOUTHEAST GEORGIA...

CITY           SKY/WX    TMP DP  RH WIND       PRES   REMARKS
THOMSON        CLEAR     51  51 100 CALM      30.19R
AUGUSTA-BUSH   CLEAR     47  46  97 CALM      30.14R FOG
AUGUSTA-DANIEL CLEAR     57  50  77 SE5       30.14R
SWAINSBORO     NOT AVBL
VIDALIA        CLEAR     54  54 100 CALM      30.15R
EASTMAN          N/A     50  50 100 CALM      30.17R FOG
HAZLEHURST     FAIR      58  54  84 SW3       30.14R
ALMA           CLEAR     53  50  89 SW3       30.14R
WAYCROSS       CLEAR     55  54  95 CALM      30.15R
JESUP          FAIR      52  50  93 CALM      30.15R
BAXLEY         FAIR      54  54 100 CALM      30.15R
BRUNSWICK        N/A     52  52 100 CALM      30.15R VSB 3/4
SAINT SIMONS   CLEAR     56  55  97 CALM      30.14R

$$

SCZ027-028-034-036>038-045-046-048>050-GAZ119-141-031200-
...LAKE AND SUPPLEMENTAL COASTAL OBSERVATIONS...

STATION/POSITION TIME  TEMP    WIND        PRES    WAVE   SWELL
                       AIR SEA DIR/SP/G            HT/PER HT/PER/DIR
                 (UTC) (F)     (DEG/KT/KT) (MB)    (FT/S) (FT/S/D)
UPR LAKE MARION  NOT AVBL
WINYAH BAY       1000   57     300/  1     1019.0S
LAKE MURRAY      1000   56      CALM  /  1 1019.6R
ACE BASIN NERRS  NOT AVBL
FORT PULASKI     1100   62 69  340/  2/  3 1021.1R
SAPELO ISLAND    1100   60     260/  2     1020.0S

$$

ANZ835-935-AMZ111-154-330-350-352-354-370-450-454-472-031200-
...C-MAN AND BUOY OBSERVATIONS...

STATION/POSITION TIME  TEMP    WIND        PRES    WAVE   SWELL
                       AIR SEA DIR/SP/G            HT/PER HT/PER/DIR
                 (UTC) (F)     (DEG/KT/KT) (MB)    (FT/S) (FT/S/D)
BUOY 41004       1050   69 72  280/  4/  6 1020.2R   3/11   3/11
BUOY 41008       1050   69 69  230/  8/ 10 1020.3R   3/13   3/ 70/13
FOLLY BEACH CMAN 1100   61     320/  3/  3 1020.8R
CAPERS NEARSHORE 1008   65     300/  4/  6 1019.9R
FRIPP NEARSHORE  1000   67     270/  8/ 10 1019.5R


STATION/POSITION TIME  TEMP    WIND        PRES    WAVE   SWELL
                       AIR SEA DIR/SP/G            HT/PER HT/PER/DIR
                 (UTC) (F)     (DEG/KT/KT) (MB)    (FT/S) (FT/S/D)
5E ST. MARYS GA  1021      70                N/A     3/14   2/ 70/14
FRYING PAN BUOY  1050   68 71  340/  6/  8 1021.2R   4/11   3/ 80/11
BUOY 41025       1050   57     300/  2/  4 1020.2R   5/11   5/ 70/11
CAPE LOOKOUT NC  1100   62     280/  4/  4 1020.4R
BUOY 41002       1050   66 69  350/ 14/ 17 1020.1R   9/11   8/360/11
BUOY 41010       1020   72 78   50/ 12/ 16 1019.5R
ST AUGUSTINE FL  1100   71 70  100/  9/  9 1020.9R


$$



USA.gov is the U.S. government's official web portal to all federal, state and local government web resources and services.